Skip Page Navigation
NASA JPL Caltech
NASA Logo - Jet Propulsion Laboratory + View the NASA Portal
+ Near-Earth Object (NEO) Program
Search JPL
JPL Home Earth Solar System Stars & Galaxies Technology
JPL Solar System Dynamics
BODIES ORBITS EPHEMERIDES TOOLS PHYSICAL DATA DISCOVERY FAQ SITE MAP
JPL Small-Body Database Browser
Search: [ help ]  
(2012 VN82)
Classification: Apollo [NEO]          SPK-ID: 3618067
Ephemeris | Orbit Diagram | Orbital Elements | Physical Parameters | Close-Approach Data ]

[ hide orbit diagram ]
Orbit Diagram
Note: Make sure you have Java enabled on your browser to see the applet. This applet is provided as a 3D orbit visualization tool. The applet was implemented using 2-body methods, and hence should not be used for determining accurate long-term trajectories (over several years or decades) or planetary encounter circumstances. For accurate long-term ephemerides, please instead use our Horizons system.
Orbit Viewer

Additional Notes: the orbits shown in the applet are color coded. The planets are white lines, and the asteroid/comet is a blue line. The bright white line indicates the portion of the orbit that is above the ecliptic plane, and the darker portion is below the ecliptic plane. Likewise for the asteroid/comet orbit, the light blue indicates the portion above the ecliptic plane, and the dark blue the portion below the ecliptic plane.

Orbit Viewer applet originally written and kindly provided by Osamu Ajiki (AstroArts), and further modified by Ron Baalke (JPL).


Orbital Elements at Epoch 2456400.5 (2013-Apr-18.0) TDB
Reference: JPL 14 (heliocentric ecliptic J2000)
 Element Value Uncertainty (1-sigma)   Units 
e .5065910741881409 5.0416e-06  
a 1.551035413748033 1.1016e-05 AU
q .7652947173935696 2.4e-06 AU
i 9.707751775348104 0.00013092 deg
node 228.6967455004491 0.00020356 deg
peri 331.1534148784684 0.00021223 deg
M 356.7787252507595 1.6489e-05 deg
tp 2456406.813297648870
(2013-Apr-24.31329765)
8.4043e-05 JED
period 705.5552011293172
1.93
0.0075166
2.058e-05
d
yr
n .5102364767827963 5.4358e-06 deg/d
Q 2.336776110102497 1.6597e-05 AU
  Orbit Determination Parameters
   # obs. used (total)      66  
   data-arc span      217 days  
   first obs. used      2012-11-13  
   last obs. used      2013-06-18  
   planetary ephem.      DE405  
   SB-pert. ephem.      SB405-CPV-2  
   condition code      4  
   fit RMS      .57365  
   data source      ORB  
   producer      Otto Matic  
   solution date      2013-Jun-19 01:47:01  

Additional Information
 Earth MOID = .1155 AU 
 T_jup = 4.283 
[ show covariance matrix ]

Ephemeris | Orbit Diagram | Orbital Elements | Physical Parameters | Close-Approach Data ]

Physical Parameter Table
Parameter Symbol Value Units Sigma Reference Notes
absolute magnitude H 19.974 mag .29794 14 autocmod 2.5c

[ show close-approach data ]
Ephemeris | Orbit Diagram | Orbital Elements | Physical Parameters | Close-Approach Data ]
ABOUT SSD CREDITS/AWARDS PRIVACY/COPYRIGHT GLOSSARY LINKS
FirstGov 2013-Jun-19 17:52 UT
(server date/time)  
NASA Home Page
Site Manager:   Donald K. Yeomans
Webmaster  Alan B. Chamberlin